• In Deutschland
  • Länderverzeichnis
  • Für 7 Tage
  • Wassertemperatur
  • Satellitenkarten
  • Wetterkarte
  • Widgets
  • user-avatar
    Anmelden

    Stündliche Wetter Orange Walk

    Heute, 21 Juli, Freitag

    Zeit Temperatur Niederschläge Wind Luftdruck Luftfeuchtigkeit
    00:00 +26°C° 0 mm 1 m/S 759 mmHg 95%
    01:00 +26°C° 0,2 mm 1 m/S 759 mmHg 96%
    02:00 +26°C° 0,2 mm 1 m/S 759 mmHg 97%
    03:00 +25°C° 0,2 mm 1 m/S 758 mmHg 97%
    04:00 +26°C° 0,1 mm 1 m/S 758 mmHg 97%
    05:00 +26°C° 0,1 mm 1 m/S 758 mmHg 97%
    06:00 +26°C° 0,1 mm 1 m/S 758 mmHg 97%
    07:00 +28°C° 0,1 mm 1 m/S 759 mmHg 88%
    08:00 +30°C° 0,1 mm 2 m/S 759 mmHg 79%
    09:00 +32°C° 0,1 mm 2 m/S 759 mmHg 71%
    10:00 +32°C° 0,3 mm 2 m/S 759 mmHg 71%
    11:00 +32°C° 0,3 mm 2 m/S 759 mmHg 70%
    12:00 +34°C° 0,3 mm 3 m/S 759 mmHg 70%
    13:00 +34°C° 0,3 mm 3 m/S 759 mmHg 68%
    14:00 +34°C° 0,3 mm 3 m/S 758 mmHg 66%
    15:00 +34°C° 0,3 mm 3 m/S 758 mmHg 64%
    16:00 +33°C° 0 mm 3 m/S 758 mmHg 68%
    17:00 +31°C° 0 mm 3 m/S 758 mmHg 72%
    18:00 +30°C° 0 mm 3 m/S 758 mmHg 76%
    19:00 +29°C° 0 mm 3 m/S 758 mmHg 81%
    20:00 +29°C° 0 mm 2 m/S 759 mmHg 86%
    21:00 +28°C° 0 mm 2 m/S 759 mmHg 91%
    22:00 +27°C° 0 mm 2 m/S 759 mmHg 91%
    23:00 +27°C° 0 mm 2 m/S 759 mmHg 92%

    Morgen, 22 Juli, Samstag

    Zeit Temperatur Niederschläge Wind Luftdruck Luftfeuchtigkeit
    00:00 +27°C° 0 mm 2 m/S 759 mmHg 93%
    01:00 +27°C° 0 mm 2 m/S 758 mmHg 93%
    02:00 +26°C° 0 mm 2 m/S 758 mmHg 94%
    03:00 +26°C° 0 mm 2 m/S 758 mmHg 95%
    04:00 +26°C° 0 mm 1 m/S 758 mmHg 94%
    05:00 +26°C° 0 mm 1 m/S 758 mmHg 94%
    06:00 +26°C° 0 mm 1 m/S 758 mmHg 94%
    07:00 +28°C° 0,1 mm 2 m/S 758 mmHg 86%
    08:00 +30°C° 0,1 mm 3 m/S 759 mmHg 78%
    09:00 +33°C° 0,1 mm 3 m/S 759 mmHg 70%
    10:00 +34°C° 0,1 mm 3 m/S 759 mmHg 63%
    11:00 +35°C° 0,1 mm 4 m/S 759 mmHg 56%
    12:00 +36°C° 0,1 mm 4 m/S 759 mmHg 49%
    13:00 +36°C° 0,1 mm 4 m/S 758 mmHg 51%
    14:00 +36°C° 0,1 mm 4 m/S 758 mmHg 53%
    15:00 +35°C° 0,1 mm 4 m/S 757 mmHg 55%
    16:00 +34°C° 0,1 mm 3 m/S 757 mmHg 61%
    17:00 +31°C° 0,1 mm 3 m/S 757 mmHg 68%
    18:00 +30°C° 0,1 mm 3 m/S 757 mmHg 74%
    19:00 +29°C° 0 mm 2 m/S 758 mmHg 80%
    20:00 +28°C° 0 mm 2 m/S 758 mmHg 85%
    21:00 +27°C° 0 mm 2 m/S 759 mmHg 91%
    22:00 +27°C° 0 mm 2 m/S 759 mmHg 92%
    23:00 +27°C° 0 mm 2 m/S 759 mmHg 93%

    übermorgen, 23 Juli, Sonntag

    Zeit Temperatur Niederschläge Wind Luftdruck Luftfeuchtigkeit
    00:00 +26°C° 0 mm 1 m/S 759 mmHg 95%
    01:00 +26°C° 0,2 mm 1 m/S 758 mmHg 95%
    02:00 +26°C° 0,2 mm 1 m/S 758 mmHg 96%
    03:00 +26°C° 0,2 mm 1 m/S 757 mmHg 97%
    04:00 +26°C° 0,4 mm 1 m/S 757 mmHg 97%
    05:00 +26°C° 0,4 mm 1 m/S 757 mmHg 97%
    06:00 +26°C° 0,4 mm 1 m/S 757 mmHg 97%
    07:00 +27°C° 0,5 mm 2 m/S 758 mmHg 93%
    08:00 +29°C° 0,5 mm 2 m/S 758 mmHg 89%
    09:00 +30°C° 0,5 mm 3 m/S 759 mmHg 84%
    10:00 +31°C° 0,6 mm 3 m/S 758 mmHg 80%
    11:00 +31°C° 0,6 mm 3 m/S 758 mmHg 76%
    12:00 +33°C° 0,6 mm 3 m/S 758 mmHg 72%
    13:00 +34°C° 0,2 mm 3 m/S 758 mmHg 67%
    14:00 +34°C° 0,2 mm 3 m/S 757 mmHg 63%
    15:00 +35°C° 0,2 mm 3 m/S 757 mmHg 59%
    16:00 +34°C° 0,2 mm 3 m/S 757 mmHg 64%
    17:00 +31°C° 0,2 mm 3 m/S 757 mmHg 69%
    18:00 +30°C° 0,2 mm 3 m/S 757 mmHg 75%
    19:00 +29°C° 0,1 mm 2 m/S 757 mmHg 80%
    20:00 +28°C° 0,1 mm 2 m/S 758 mmHg 85%
    21:00 +27°C° 0,1 mm 2 m/S 758 mmHg 90%
    22:00 +27°C° 0 mm 2 m/S 758 mmHg 92%
    23:00 +27°C° 0 mm 2 m/S 758 mmHg 93%

    24 Juli, Montag

    Zeit Temperatur Niederschläge Wind Luftdruck Luftfeuchtigkeit
    00:00 +27°C° 0 mm 2 m/S 758 mmHg 95%
    01:00 +27°C° 0,2 mm 2 m/S 758 mmHg 95%
    02:00 +27°C° 0,2 mm 2 m/S 757 mmHg 96%
    03:00 +26°C° 0,2 mm 2 m/S 757 mmHg 97%
    04:00 +27°C° 0,5 mm 2 m/S 757 mmHg 97%
    05:00 +27°C° 0,5 mm 2 m/S 758 mmHg 97%
    06:00 +27°C° 0,5 mm 2 m/S 758 mmHg 97%
    07:00 +28°C° 0,9 mm 2 m/S 758 mmHg 92%
    08:00 +29°C° 0,9 mm 3 m/S 759 mmHg 87%
    09:00 +31°C° 0,9 mm 3 m/S 759 mmHg 82%
    10:00 +31°C° 0,7 mm 3 m/S 759 mmHg 80%
    11:00 +33°C° 0,7 mm 3 m/S 758 mmHg 78%
    12:00 +33°C° 0,7 mm 3 m/S 758 mmHg 77%
    13:00 +33°C° 0,6 mm 3 m/S 758 mmHg 75%
    14:00 +33°C° 0,6 mm 3 m/S 757 mmHg 73%
    15:00 +34°C° 0,6 mm 3 m/S 757 mmHg 72%
    16:00 +33°C° 0,2 mm 3 m/S 757 mmHg 75%
    17:00 +31°C° 0,2 mm 3 m/S 757 mmHg 79%
    18:00 +30°C° 0,2 mm 3 m/S 757 mmHg 83%
    19:00 +29°C° 0,1 mm 3 m/S 758 mmHg 87%
    20:00 +28°C° 0,1 mm 2 m/S 758 mmHg 91%
    21:00 +27°C° 0,1 mm 2 m/S 759 mmHg 95%
    22:00 +27°C° 0 mm 2 m/S 759 mmHg 95%
    23:00 +27°C° 0 mm 2 m/S 759 mmHg 96%

    25 Juli, Dienstag

    Zeit Temperatur Niederschläge Wind Luftdruck Luftfeuchtigkeit
    00:00 +27°C° 0 mm 2 m/S 758 mmHg 97%
    01:00 +27°C° 0,1 mm 2 m/S 758 mmHg 97%
    02:00 +27°C° 0,1 mm 2 m/S 758 mmHg 97%
    03:00 +27°C° 0,1 mm 2 m/S 758 mmHg 97%
    04:00 +27°C° 0,1 mm 2 m/S 758 mmHg 96%
    05:00 +27°C° 0,1 mm 2 m/S 758 mmHg 96%
    06:00 +27°C° 0,1 mm 2 m/S 758 mmHg 96%
    07:00 +28°C° 0,1 mm 2 m/S 759 mmHg 89%
    08:00 +30°C° 0,1 mm 3 m/S 759 mmHg 82%
    09:00 +33°C° 0,1 mm 3 m/S 759 mmHg 75%
    10:00 +34°C° 0,2 mm 4 m/S 759 mmHg 69%
    11:00 +35°C° 0,2 mm 4 m/S 759 mmHg 64%
    12:00 +36°C° 0,2 mm 4 m/S 759 mmHg 58%
    13:00 +36°C° 0 mm 4 m/S 758 mmHg 57%
    14:00 +36°C° 0 mm 4 m/S 758 mmHg 56%
    15:00 +36°C° 0 mm 4 m/S 757 mmHg 55%
    16:00 +34°C° 0 mm 3 m/S 758 mmHg 62%
    17:00 +33°C° 0 mm 3 m/S 758 mmHg 69%
    18:00 +30°C° 0 mm 2 m/S 758 mmHg 76%
    19:00 +29°C° 0,3 mm 2 m/S 758 mmHg 81%
    20:00 +28°C° 0,3 mm 2 m/S 759 mmHg 87%
    21:00 +27°C° 0,3 mm 2 m/S 759 mmHg 93%
    22:00 +27°C° 0,8 mm 2 m/S 759 mmHg 94%
    23:00 +27°C° 0,8 mm 2 m/S 759 mmHg 95%

    26 Juli, Mittwoch

    Zeit Temperatur Niederschläge Wind Luftdruck Luftfeuchtigkeit
    00:00 +26°C° 0,8 mm 2 m/S 759 mmHg 96%
    01:00 +26°C° 0,1 mm 2 m/S 758 mmHg 97%
    02:00 +26°C° 0,1 mm 2 m/S 758 mmHg 97%
    03:00 +26°C° 0,1 mm 1 m/S 758 mmHg 98%
    04:00 +26°C° 0,1 mm 2 m/S 758 mmHg 97%
    05:00 +26°C° 0,1 mm 2 m/S 758 mmHg 97%
    06:00 +26°C° 0,1 mm 2 m/S 758 mmHg 97%
    07:00 +28°C° 0,2 mm 2 m/S 758 mmHg 90%
    08:00 +30°C° 0,2 mm 3 m/S 759 mmHg 82%
    09:00 +31°C° 0,2 mm 3 m/S 759 mmHg 75%
    10:00 +33°C° 0,2 mm 3 m/S 759 mmHg 70%
    11:00 +34°C° 0,2 mm 3 m/S 758 mmHg 66%
    12:00 +35°C° 0,2 mm 4 m/S 758 mmHg 62%
    13:00 +35°C° 0,6 mm 3 m/S 758 mmHg 63%
    14:00 +35°C° 0,6 mm 3 m/S 757 mmHg 64%
    15:00 +34°C° 0,6 mm 3 m/S 757 mmHg 66%
    16:00 +33°C° 0,1 mm 3 m/S 757 mmHg 69%
    17:00 +31°C° 0,1 mm 3 m/S 757 mmHg 72%
    18:00 +30°C° 0,1 mm 2 m/S 757 mmHg 76%
    19:00 +29°C° 0 mm 2 m/S 757 mmHg 81%
    20:00 +28°C° 0 mm 2 m/S 758 mmHg 87%
    21:00 +27°C° 0 mm 2 m/S 758 mmHg 93%
    22:00 +27°C° 0 mm 2 m/S 758 mmHg 94%
    23:00 +27°C° 0 mm 2 m/S 758 mmHg 95%
    Mehr zeigen